Little Bay Observation History
Time Wind Speed Temp Pressure Rel. Hum Rain
04/03:30am WSW 8-11 kts n/a n/a n/a n/a
04/03:00am WSW 9-14 kts n/a n/a n/a n/a
04/02:30am WSW 7-12 kts n/a n/a n/a n/a
04/02:00am SW 8-15 kts n/a n/a n/a n/a
04/01:30am SW 7-12 kts n/a n/a n/a n/a
04/01:00am SSW 14-20 kts n/a n/a n/a n/a
04/12:30am SSW 15-21 kts n/a n/a n/a n/a
04/12:00am SW 9-19 kts n/a n/a n/a n/a
Time Wind Speed Temp Pressure Rel. Hum Rain
03/11:42pm SSW 15-25 kts n/a n/a n/a n/a
03/11:30pm S 16-22 kts n/a n/a n/a n/a
03/11:24pm S 16-27 kts n/a n/a n/a n/a
03/11:00pm SSW 18-25 kts n/a n/a n/a n/a
03/10:45pm SSW 15-27 kts n/a n/a n/a n/a
03/10:30pm SW 8-11 kts n/a n/a n/a n/a
03/10:00pm SW 8-17 kts n/a n/a n/a n/a
03/09:30pm SW 8-13 kts n/a n/a n/a n/a
03/09:00pm SW 11-19 kts n/a n/a n/a n/a
03/08:30pm S 16-23 kts n/a n/a n/a n/a
03/08:00pm S 17-24 kts n/a n/a n/a n/a
03/07:30pm S 17-22 kts n/a n/a n/a n/a
03/07:00pm S 17-24 kts n/a n/a n/a n/a
03/06:30pm S 17-23 kts n/a n/a n/a n/a
03/06:00pm S 17-23 kts n/a n/a n/a n/a
03/05:30pm S 16-23 kts n/a n/a n/a n/a
03/05:00pm S 15-22 kts n/a n/a n/a n/a
03/04:30pm S 16-23 kts n/a n/a n/a n/a
03/04:00pm S 16-22 kts n/a n/a n/a n/a
03/03:30pm S 16-22 kts n/a n/a n/a n/a
03/03:00pm S 18-26 kts n/a n/a n/a n/a
03/02:30pm S 17-24 kts n/a n/a n/a n/a
03/02:00pm S 13-20 kts n/a n/a n/a n/a
03/01:30pm SSW 14-20 kts n/a n/a n/a n/a
03/01:00pm SSW 14-22 kts n/a n/a n/a n/a
03/12:30pm SSW 14-22 kts n/a n/a n/a n/a
03/12:00pm SSW 13-20 kts n/a n/a n/a n/a
03/11:30am SSW 11-16 kts n/a n/a n/a n/a
03/11:00am SW 9-17 kts n/a n/a n/a n/a
03/10:30am WSW 10-17 kts n/a n/a n/a n/a
03/10:00am WSW 10-14 kts n/a n/a n/a n/a
03/09:30am WSW 10-16 kts n/a n/a n/a n/a
03/09:00am WSW 11-19 kts n/a n/a n/a n/a
03/08:30am WSW 12-19 kts n/a n/a n/a n/a
03/08:00am WSW 10-15 kts n/a n/a n/a n/a
03/07:30am WNW 5-9 kts n/a n/a n/a n/a
03/07:00am WNW 5-9 kts n/a n/a n/a n/a
03/06:30am WNW 5-8 kts n/a n/a n/a n/a
03/06:00am WNW 6-9 kts n/a n/a n/a n/a
03/05:30am W 10-16 kts n/a n/a n/a n/a
03/05:00am WNW 6-9 kts n/a n/a n/a n/a
03/04:30am WNW 7-12 kts n/a n/a n/a n/a
03/04:00am WNW 6-10 kts n/a n/a n/a n/a
03/03:30am WNW 7-10 kts n/a n/a n/a n/a
03/03:00am WNW 7-11 kts n/a n/a n/a n/a
03/02:30am W 8-14 kts n/a n/a n/a n/a
03/02:00am WNW 8-13 kts n/a n/a n/a n/a
03/01:30am W 9-12 kts n/a n/a n/a n/a
03/01:00am WNW 7-10 kts n/a n/a n/a n/a
03/12:30am W 9-13 kts n/a n/a n/a n/a
03/12:00am W 7-11 kts n/a n/a n/a n/a
Time Wind Speed Temp Pressure Rel. Hum Rain
02/11:30pm WNW 6-9 kts n/a n/a n/a n/a
02/11:00pm W 8-11 kts n/a n/a n/a n/a
02/10:30pm W 10-16 kts n/a n/a n/a n/a
02/10:00pm W 11-17 kts n/a n/a n/a n/a
02/09:30pm W 10-18 kts n/a n/a n/a n/a
02/09:00pm W 9-15 kts n/a n/a n/a n/a
02/08:30pm W 10-18 kts n/a n/a n/a n/a
02/08:00pm W 12-18 kts n/a n/a n/a n/a
02/07:30pm WSW 12-19 kts n/a n/a n/a n/a
02/07:00pm W 11-20 kts n/a n/a n/a n/a
02/06:30pm W 11-19 kts n/a n/a n/a n/a
02/06:00pm W 10-17 kts n/a n/a n/a n/a
02/05:30pm W 10-16 kts n/a n/a n/a n/a
02/05:00pm W 9-15 kts n/a n/a n/a n/a
02/04:30pm WSW 10-16 kts n/a n/a n/a n/a
02/04:00pm WSW 5-9 kts n/a n/a n/a n/a
02/03:30pm WSW 6-9 kts n/a n/a n/a n/a
02/03:00pm SW 7-11 kts n/a n/a n/a n/a
02/02:30pm SW 10-14 kts n/a n/a n/a n/a
02/02:00pm SW 10-18 kts n/a n/a n/a n/a
02/01:30pm SW 8-14 kts n/a n/a n/a n/a
02/01:00pm SW 9-16 kts n/a n/a n/a n/a
02/12:30pm WSW 11-16 kts n/a n/a n/a n/a
02/12:00pm WSW 11-19 kts n/a n/a n/a n/a
02/11:30am WSW 11-18 kts n/a n/a n/a n/a
02/11:00am W 10-16 kts n/a n/a n/a n/a
02/10:30am W 10-17 kts n/a n/a n/a n/a
02/10:00am W 9-13 kts n/a n/a n/a n/a
02/09:30am WNW 4-6 kts n/a n/a n/a n/a
02/09:00am WNW 5-9 kts n/a n/a n/a n/a
02/08:30am W 9-16 kts n/a n/a n/a n/a
02/08:00am W 8-14 kts n/a n/a n/a n/a
02/07:30am WSW 10-15 kts n/a n/a n/a n/a
02/07:00am WSW 9-14 kts n/a n/a n/a n/a
02/06:30am W 10-16 kts n/a n/a n/a n/a
02/06:00am W 10-17 kts n/a n/a n/a n/a
02/05:30am W 11-17 kts n/a n/a n/a n/a
02/05:00am W 10-15 kts n/a n/a n/a n/a
02/04:30am W 11-17 kts n/a n/a n/a n/a
02/04:00am W 11-18 kts n/a n/a n/a n/a
02/03:30am W 12-20 kts n/a n/a n/a n/a
02/03:00am W 10-18 kts n/a n/a n/a n/a
02/02:30am WNW 9-17 kts n/a n/a n/a n/a
02/02:00am WNW 10-17 kts n/a n/a n/a n/a
02/01:30am WNW 11-18 kts n/a n/a n/a n/a
02/01:00am WNW 9-14 kts n/a n/a n/a n/a
02/12:30am WNW 10-16 kts n/a n/a n/a n/a
02/12:00am WNW 11-17 kts n/a n/a n/a n/a